[[{"header":{"parameterUnit":"m.s-1","parameterCategory":1,"la1":30.2991,"la2":30.254,"lo1":-89.0895,"lo2":-89.0444,"dy":0.0017,"dx":0.0017,"nx":28,"ny":28,"refTime":"2024-10-06T09:00:00:Z","depth":0,"parameterNumber":2,"parameterNumberName":"U-component_of_WINDS"},"data":[0,0,0,0,0,0,0,0,0,0,0,0,0,0,0,0,0,0,0,0,0,0,0,0,0,0,0,0,0,0,0,0,0,0,0,0,0,0,0,0,0,0,0,0,0,0,0,0,0,0,0,0,0,0,0,0,0,0,-4.6175,-4.6177,0,-4.6307,-4.6308,-4.631,-4.623,-4.6226,-4.6222,-4.6219,-4.6355,-4.6362,-4.6369,0,0,0,0,0,0,0,0,0,0,0,0,0,-4.5856,-4.5862,-4.6175,-4.6177,-4.6179,-4.6307,-4.6308,-4.631,-4.6231,-4.6226,-4.6221,-4.6217,-4.6353,-4.6361,-4.637,0,0,0,0,0,0,0,0,0,0,0,0,0,-4.5992,-4.5864,-4.6175,-4.6154,-4.6154,-4.6306,-4.6309,-4.6311,-4.6232,-4.6226,-4.622,-4.6215,-4.635,-4.636,-4.6371,-4.6552,0,0,-4.6404,-4.6408,0,0,0,0,0,0,0,0,-4.5984,-4.6004,-4.6156,-4.6156,-4.6156,-4.6246,-4.6246,-4.6392,-4.6233,-4.6202,-4.6219,-4.6212,-4.6323,-4.6336,-4.6373,-4.6558,-4.6564,-4.6405,-4.6411,-4.6416,-4.6419,0,0,0,0,0,0,0,-4.5975,-4.5997,-4.6227,-4.6158,-4.6158,-4.6139,-4.6152,-4.6273,-4.6293,-4.6204,-4.6199,-4.6215,-4.6322,-4.6363,-4.6376,-4.6566,-4.6404,-4.6414,-4.6421,-4.6425,-4.6906,-4.6912,0,0,0,0,0,0,-4.5967,-4.599,-4.6223,-4.6231,-4.6054,-4.6149,-4.6163,-4.6223,-4.6292,-4.6297,-4.622,-4.6211,-4.6348,-4.6363,-4.638,-4.6598,-4.6416,-4.6426,-4.6432,-4.69,-4.6908,-4.6915,0,0,0,0,0,0,-4.596,-4.5988,-4.6218,-4.6109,-4.6137,-4.6161,-4.6228,-4.6229,-4.6269,-4.6304,-4.6307,-4.6258,-4.6344,-4.6365,-4.651,-4.6601,-4.6431,-4.644,-4.6893,-4.6902,-4.6911,-4.7034,0,0,0,0,0,0,-4.5951,-4.5986,-4.6055,-4.6111,-4.6143,-4.6345,-4.6233,-4.6235,-4.6288,-4.6277,-4.634,-4.6345,-4.6341,-4.6494,-4.6521,-4.6613,-4.6449,-4.6885,-4.6897,-4.6908,-4.7022,-4.7046,-4.7067,0,0,0,0,0,-4.594,-4.6085,-4.6059,-4.6088,-4.623,-4.6351,-4.6369,-4.6361,-4.6295,-4.6365,-4.6387,-4.6343,-4.6586,-4.651,-4.6539,-4.6636,-4.6879,-4.6893,-4.6907,-4.7011,-4.7041,-4.7067,0,0,0,0,0,0,-4.6039,-4.6092,-4.6064,-4.6231,-4.6287,-4.6337,-4.6425,-4.6392,-4.6469,-4.6456,-4.6442,-4.6457,-4.6608,-4.6636,-4.6549,-4.6815,-4.6723,-4.6743,-4.6792,-4.682,-4.6843,-4.6834,-4.6458,0,0,0,0,0,-4.608,-4.6174,-4.6215,-4.6358,-4.6387,-4.6401,-4.6454,-4.6442,-4.65,-4.6524,-4.6556,-4.6614,-4.6704,-4.6763,-4.6847,-4.7024,-4.7037,-4.7105,-4.7128,-4.7147,-4.7166,-4.7262,-4.7293,-4.6961,-4.6961,-4.6961,0,0,-4.6167,-4.6207,-4.6267,-4.6379,-4.6421,-4.6519,-4.6422,-4.6529,-4.6602,-4.654,-4.6679,-4.6705,-4.6769,-4.6931,-4.7003,-4.6958,-4.726,-4.7165,-4.7179,-4.7188,-4.728,-4.7311,-4.7339,-4.6971,-4.6969,-4.6968,0,0,-4.6374,-4.6413,-4.6538,-4.6582,-4.6646,-4.6655,-4.6684,-4.674,-4.6754,-4.6893,-4.6849,-4.6935,-4.7089,-4.7137,-4.7181,-4.7406,-4.7369,-4.7434,-4.7554,-4.7649,-4.7675,-4.7698,-4.778,-4.7809,-4.7452,-4.7452,-4.7453,0,-4.6474,-4.6619,-4.6606,-4.6717,-4.6768,-4.6715,-4.6841,-4.6885,-4.6974,-4.7011,-4.6958,-4.7151,-4.719,-4.7363,-4.7418,-4.7455,-4.7489,-4.7428,-4.7672,-4.7695,-4.7716,-4.7794,-4.7825,-4.746,-4.7459,-4.7458,-4.7458,0,-4.6739,-4.684,-4.6933,-4.702,-4.7081,-4.7199,-4.7204,-4.7267,-4.725,-4.7264,-4.7407,-4.7452,-4.7545,-4.7584,-4.7569,-4.7755,-4.7725,-4.7673,-4.758,-4.7756,-4.7829,-4.7859,-4.7471,-4.7468,-4.7466,-4.7464,0,0,-4.7014,-4.7092,-4.7127,-4.7166,-4.7233,-4.7312,-4.7427,-4.7517,-4.7573,-4.7636,-4.7733,-4.7864,-4.7816,-4.7867,-4.7856,-4.7939,-4.8116,-4.7876,-4.7877,-4.7921,-4.8326,-4.8367,-4.8402,-4.809,-4.8096,-4.81,-4.8321,0,-4.7228,-4.743,-4.7421,-4.761,-4.7704,-4.7655,-4.7756,-4.7808,-4.7824,-4.7906,-4.7923,-4.8017,-4.7946,-4.7976,-4.8055,-4.8078,-4.8197,-4.8061,-4.8183,-4.8187,-4.817,-4.8439,-4.8483,-4.8689,-4.835,-4.8354,-4.8358,0,-4.7504,-4.7576,-4.7775,-4.7828,-4.7868,-4.7959,-4.8041,-4.812,-4.8178,-4.8183,-4.824,-4.8216,-4.8333,-4.8236,-4.8398,-4.8306,-4.8354,-4.8373,-4.838,-4.8393,-4.8285,-4.8462,-4.8755,-4.8787,-4.8402,-4.8399,-4.8396,0,-4.7687,-4.7834,-4.7972,-4.8007,-4.8073,-4.8138,-4.8168,-4.8221,-4.8276,-4.8347,-4.8383,-4.8467,-4.8515,-4.8581,-4.858,-4.8509,-4.8745,-4.8647,-4.8754,-4.8755,-4.8808,-4.8805,-4.9116,-4.8836,-4.8836,-4.8835,-4.8835,0,-4.7928,-4.8052,-4.8056,-4.8141,-4.8279,-4.8267,-4.8403,-4.8427,-4.8474,-4.8563,-4.8525,-4.861,-4.8602,-4.8688,-4.8688,-4.8824,-4.8844,-4.8853,-4.8852,-4.8858,-4.8857,-4.8892,-4.8878,-4.8843,-4.8842,-4.884,-4.8839,0,-4.8157,-4.8165,-4.8312,-4.8362,-4.8377,-4.8477,-4.8519,-4.86,-4.8612,-4.8725,-4.8751,-4.877,-4.8869,-4.8874,-4.8988,-4.8988,-4.9153,-4.9135,-4.9134,-4.9131,-4.9239,-4.923,-4.9584,-4.963,-4.9319,-4.9322,-4.9324,0,-4.8311,-4.8406,-4.8465,-4.8522,-4.8556,-4.8648,-4.8704,-4.8696,-4.8756,-4.8829,-4.8902,-4.8996,-4.9072,-4.9233,-4.9257,-4.9344,-4.9329,-4.9447,-4.9342,-4.9345,-4.9333,-4.9329,-4.9339,-4.9468,-4.9472,-4.9475,-4.9477,0,-4.8585,-4.8584,-4.8665,-4.8749,-4.8817,-4.8882,-4.8943,-4.8992,-4.899,-4.906,-4.916,-4.9219,-4.9335,-4.943,-4.9515,-4.9546,-4.9513,-4.9509,-4.9539,-4.9547,-4.9544,-4.9549,-4.9192,-4.9502,-4.9499,-4.9498,-4.9496,-4.9495,-4.8783,-4.8864,-4.8919,-4.9012,-4.9056,-4.9114,-4.9193,-4.9214,-4.9298,-4.9392,-4.9381,-4.9493,-4.9549,-4.9659,-4.9697,-4.9785,-4.9745,-4.9788,-4.9799,-4.981,-4.9822,-4.9528,-4.98,-4.9799,-4.9799,-4.9798,-4.9798,0,-4.9056,-4.9088,-4.9173,-4.926,-4.9333,-4.9293,-4.9358,-4.9422,-4.9521,-4.9575,-4.9651,-4.9766,-4.9858,-4.989,-4.9979,-5.0044,-5.003,-5.0068,-5.0064,-5.0072,-4.9852,-4.9819,-5.0077,-5.0077,-5.0077,-5.0077,-5.0077,-5.0077,-4.9207,-4.9343,-4.9349,-4.9507,-4.9539,-4.9648,-4.9689,-4.9742,-4.9786,-4.9917,-4.9993,-5.0012,-5.0058,-5.015,-5.0233,-5.024,-5.0275,-5.032,-5.0321,-5.0115,-5.0087,-5.0061,-5.0029,-5.0327,-5.0327,-5.0533,-5.0535,-5.0536]},{"header":{"parameterUnit":"m.s-1","parameterCategory":1,"la1":30.2991,"la2":30.254,"lo1":-89.0895,"lo2":-89.0444,"dy":0.0017,"dx":0.0017,"nx":28,"ny":28,"refTime":"2024-10-06T09:00:00:Z","depth":0,"parameterNumber":3,"parameterNumberName":"V-component_of_WINDS"},"data":[0,0,0,0,0,0,0,0,0,0,0,0,0,0,0,0,0,0,0,0,0,0,0,0,0,0,0,0,0,0,0,0,0,0,0,0,0,0,0,0,0,0,0,0,0,0,0,0,0,0,0,0,0,0,0,0,0,0,-4.9685,-4.9686,0,-4.974,-4.9741,-4.9741,-4.9666,-4.9663,-4.9661,-4.9658,-4.9711,-4.9715,-4.9719,0,0,0,0,0,0,0,0,0,0,0,0,0,-4.951,-4.9513,-4.9685,-4.9686,-4.9686,-4.974,-4.9741,-4.9742,-4.9667,-4.9663,-4.966,-4.9657,-4.971,-4.9714,-4.9719,0,0,0,0,0,0,0,0,0,0,0,0,0,-4.9577,-4.9514,-4.9685,-4.9656,-4.9653,-4.974,-4.9741,-4.9742,-4.9667,-4.9663,-4.9659,-4.9655,-4.9708,-4.9714,-4.972,-4.9836,0,0,-4.9738,-4.974,0,0,0,0,0,0,0,0,-4.9574,-4.9584,-4.9659,-4.9658,-4.9656,-4.9692,-4.9698,-4.9773,-4.9668,-4.9662,-4.9658,-4.9653,-4.9708,-4.9713,-4.9732,-4.9839,-4.9841,-4.9738,-4.9742,-4.9744,-4.9746,0,0,0,0,0,0,0,-4.9569,-4.9581,-4.9707,-4.966,-4.9658,-4.9638,-4.9643,-4.9712,-4.9707,-4.9662,-4.9657,-4.9665,-4.9706,-4.9727,-4.9733,-4.9842,-4.9738,-4.9743,-4.9747,-4.9749,-5.0045,-5.0049,0,0,0,0,0,0,-4.9568,-4.9578,-4.9705,-4.9708,-4.9604,-4.9644,-4.965,-4.9684,-4.9706,-4.9705,-4.9668,-4.9661,-4.9719,-4.9726,-4.9735,-4.9872,-4.9744,-4.975,-4.9753,-5.004,-5.0046,-5.005,0,0,0,0,0,0,-4.9565,-4.9581,-4.9703,-4.9642,-4.9656,-4.9652,-4.9691,-4.9688,-4.9709,-4.971,-4.9708,-4.9691,-4.9716,-4.9726,-4.9811,-4.9873,-4.9752,-4.9758,-5.0035,-5.0042,-5.0048,-5.0148,0,0,0,0,0,0,-4.956,-4.958,-4.9625,-4.9643,-4.9659,-4.978,-4.9695,-4.9692,-4.9719,-4.9711,-4.9731,-4.9731,-4.9714,-4.9803,-4.9817,-4.9879,-4.9762,-5.003,-5.0038,-5.0046,-5.0139,-5.0157,-5.0172,0,0,0,0,0,-4.9554,-4.9651,-4.9628,-4.9644,-4.9716,-4.9784,-4.9793,-4.9773,-4.9725,-4.977,-4.977,-4.973,-4.9864,-4.9813,-4.9828,-4.9892,-5.0026,-5.0036,-5.0045,-5.0132,-5.0154,-5.0172,0,0,0,0,0,0,-4.9639,-4.9653,-4.9628,-4.9733,-4.9758,-4.9771,-4.9828,-4.9797,-4.9835,-4.9825,-4.9797,-4.9802,-4.9893,-4.9901,-4.9843,-5.0005,-4.9936,-4.995,-4.9997,-5.0018,-5.0034,-5.003,-4.9767,0,0,0,0,0,-4.967,-4.9726,-4.9734,-4.9826,-4.984,-4.9832,-4.9861,-4.9843,-4.9867,-4.9877,-4.9884,-4.9908,-4.9955,-4.9986,-5.003,-5.014,-5.0142,-5.0191,-5.0207,-5.0221,-5.0233,-5.029,-5.0311,-5.0082,-5.0082,-5.0082,0,0,-4.9735,-4.9749,-4.9786,-4.9843,-4.9861,-4.9917,-4.9841,-4.9904,-4.9945,-4.9886,-4.9967,-4.9973,-4.9997,-5.0095,-5.0138,-5.0104,-5.0297,-5.0234,-5.0244,-5.0249,-5.0302,-5.0324,-5.0343,-5.0089,-5.0088,-5.0087,0,0,-4.9882,-4.9899,-4.9977,-4.9996,-5.0023,-5.0017,-5.0036,-5.0053,-5.0055,-5.0136,-5.0093,-5.014,-5.0222,-5.0241,-5.0262,-5.0414,-5.0378,-5.0429,-5.0516,-5.0572,-5.059,-5.0606,-5.066,-5.0679,-5.0441,-5.0441,-5.0441,0,-4.9958,-5.0043,-5.002,-5.0087,-5.0113,-5.0062,-5.014,-5.0159,-5.0199,-5.0217,-5.0179,-5.028,-5.0293,-5.0394,-5.0431,-5.045,-5.0469,-5.0427,-5.059,-5.0605,-5.062,-5.067,-5.0691,-5.0447,-5.0446,-5.0446,-5.0445,0,-5.0135,-5.0195,-5.0254,-5.0295,-5.0328,-5.04,-5.0386,-5.0421,-5.04,-5.0398,-5.048,-5.0493,-5.0538,-5.0561,-5.0541,-5.0659,-5.0636,-5.0594,-5.0525,-5.0648,-5.0695,-5.0714,-5.0456,-5.0454,-5.0452,-5.045,0,0,-5.0338,-5.0365,-5.0387,-5.0405,-5.0431,-5.0475,-5.0544,-5.0589,-5.0619,-5.0648,-5.0704,-5.0774,-5.0735,-5.0758,-5.0739,-5.0788,-5.0907,-5.074,-5.074,-5.077,-5.1037,-5.1068,-5.1091,-5.0883,-5.0887,-5.089,-5.1034,0,-5.0484,-5.0605,-5.0586,-5.0701,-5.0755,-5.0707,-5.0766,-5.0788,-5.0787,-5.083,-5.0828,-5.0878,-5.0823,-5.0837,-5.0884,-5.0883,-5.096,-5.0872,-5.0934,-5.0936,-5.0929,-5.1116,-5.115,-5.1286,-5.1053,-5.1056,-5.1058,0,-5.0672,-5.0708,-5.083,-5.0846,-5.0868,-5.0922,-5.0961,-5.1004,-5.1026,-5.1022,-5.1048,-5.1019,-5.1086,-5.1015,-5.1106,-5.1046,-5.107,-5.1073,-5.1078,-5.1083,-5.1005,-5.1126,-5.1329,-5.135,-5.1087,-5.1085,-5.1083,0,-5.0807,-5.0886,-5.0969,-5.0985,-5.1007,-5.1045,-5.1056,-5.1074,-5.1102,-5.1136,-5.1153,-5.1194,-5.1216,-5.1247,-5.1229,-5.118,-5.1323,-5.1251,-5.132,-5.132,-5.1352,-5.135,-5.1562,-5.1368,-5.1368,-5.1367,-5.1367,0,-5.0972,-5.1048,-5.103,-5.1081,-5.1163,-5.114,-5.1222,-5.1226,-5.1243,-5.1292,-5.1253,-5.13,-5.1274,-5.1319,-5.1305,-5.1381,-5.1392,-5.1389,-5.1384,-5.1393,-5.1393,-5.1408,-5.1398,-5.1373,-5.1371,-5.137,-5.1369,0,-5.1137,-5.1128,-5.1215,-5.1228,-5.1233,-5.1294,-5.1304,-5.1351,-5.1346,-5.1409,-5.1422,-5.1415,-5.1465,-5.1451,-5.1505,-5.1496,-5.1592,-5.1576,-5.1585,-5.1581,-5.165,-5.1644,-5.1879,-5.1908,-5.1696,-5.1698,-5.1699,0,-5.1244,-5.1301,-5.132,-5.1351,-5.1365,-5.1415,-5.1444,-5.1422,-5.1452,-5.1482,-5.1525,-5.1571,-5.1608,-5.169,-5.1688,-5.1729,-5.1713,-5.1792,-5.1719,-5.1725,-5.1714,-5.1711,-5.1716,-5.1807,-5.181,-5.1812,-5.1813,0,-5.1433,-5.1425,-5.1469,-5.151,-5.1545,-5.1577,-5.1604,-5.1631,-5.1611,-5.1647,-5.1698,-5.1727,-5.1782,-5.1829,-5.1866,-5.1874,-5.1841,-5.1836,-5.1854,-5.1863,-5.1866,-5.1865,-5.1625,-5.1831,-5.1829,-5.1828,-5.1827,-5.1826,-5.1572,-5.162,-5.1641,-5.169,-5.1709,-5.1735,-5.1779,-5.178,-5.1823,-5.1867,-5.1851,-5.191,-5.1929,-5.1975,-5.1989,-5.2033,-5.2002,-5.2029,-5.2035,-5.2042,-5.2051,-5.186,-5.204,-5.2039,-5.2038,-5.2038,-5.2038,0,-5.1759,-5.177,-5.1815,-5.1855,-5.1893,-5.1859,-5.1887,-5.192,-5.1973,-5.1994,-5.2031,-5.2089,-5.2134,-5.2136,-5.2177,-5.2212,-5.2197,-5.2224,-5.2221,-5.2223,-5.2076,-5.2056,-5.2235,-5.2235,-5.2235,-5.2235,-5.2235,-5.2235,-5.186,-5.194,-5.1935,-5.2023,-5.2033,-5.2091,-5.211,-5.2133,-5.215,-5.2217,-5.2255,-5.2256,-5.2269,-5.231,-5.2349,-5.2348,-5.2365,-5.2397,-5.2391,-5.2253,-5.2234,-5.2215,-5.2196,-5.2401,-5.2402,-5.2534,-5.2535,-5.2536]}]]